This demonstration page uses our WeatherBlox Daily Observations layout. Learn more.

Left ArrowRight Arrow

Hourly Observations for April 4, 2021

Temp ( °F °C ) Dew Point ( °F °C ) Humidity (%) Winds ( mph kmh ) Pressure ( in mb ) Visibility ( mi km ) Precip ( " mm )
12:53 am 00:53 Clear 51 10.6 43 6.1 74 74 Calm 30.12 1020 10 16 0.00 0.00
1:53 am 01:53 Clear 49 9.4 42 5.6 77 77 Calm 30.14 1021 10 16 0.00 0.00
2:53 am 02:53 Clear 49 9.4 42 5.6 77 77 Calm 30.15 1021 10 16 0.00 0.00
3:53 am 03:53 Clear 46 7.8 40 4.4 79 79 Calm 30.15 1021 10 16 0.00 0.00
4:53 am 04:53 Clear 45 7 N/A N/A NNE 5 7 30.16 1021 10 16 0.00 0.00
5:53 am 05:53 Clear 43 6 N/A N/A NNE 3 6 30.17 1022 10 16 0.00 0.00
6:53 am 06:53 Sunny 43 6 N/A N/A Calm 30.18 1022 10 16 0.00 0.00
7:53 am 07:53 Sunny 46 8 N/A N/A Calm 30.19 1023 10 16 0.00 0.00
8:53 am 08:53 Sunny 50 10 42 5.6 74 74 SE 5 7 30.19 1022 10 16 0.00 0.00
9:53 am 09:53 Sunny 54 12.2 42 5.6 64 64 SSE 6 9 30.18 1022 10 16 0.00 0.00
10:53 am 10:53 Sunny 58 14.4 43 6.1 58 58 SSW 3 6 30.16 1022 10 16 0.00 0.00
11:53 am 11:53 Sunny 61 16.1 43 6.1 52 52 SW 3 6 30.14 1021 10 16 0.00 0.00
12:53 pm 12:53 Sunny 65 18.3 45 7.2 49 49 SE 3 6 30.10 1019 10 16 0.00 0.00
1:53 pm 13:53 Sunny 68 20 44 6.7 42 42 VRB 3 6 30.07 1018 10 16 0.00 0.00
2:53 pm 14:53 Sunny 69 20.6 45 7.2 42 42 SW 6 9 30.05 1018 10 16 0.00 0.00
3:53 pm 15:53 Sunny 70 21.1 45 7.2 41 41 S 12 19 30.02 1017 10 16 0.00 0.00
4:53 pm 16:53 Sunny 70 21.1 41 5 35 35 SSE 15 24 30.01 1016 10 16 0.00 0.00
5:53 pm 17:53 Sunny 69 20.6 38 3.3 32 32 S 12 19 29.99 1016 10 16 0.00 0.00
6:53 pm 18:53 Sunny 67 19.4 42 5.6 41 41 S 10 17 29.98 1015 10 16 0.00 0.00
7:53 pm 19:53 Clear 63 17.2 44 6.7 50 50 SSE 6 9 29.99 1016 10 16 0.00 0.00
8:53 pm 20:53 Clear 61 16.1 44 6.7 54 54 Calm 30.00 1016 10 16 0.00 0.00
9:53 pm 21:53 Clear 60 15.6 45 7.2 58 58 Calm 30.00 1016 10 16 0.00 0.00
10:53 pm 22:53 Clear 59 15 45 7.2 60 60 SSE 3 6 30.01 1016 10 16 0.00 0.00
11:53 pm 23:53 Mostly Clear 58 14.4 46 7.8 65 65 Calm 30.01 1016 10 16 0.00 0.00

Powered by AerisWeather